This is the latest recevied weather packets stored in our database for station/object AG7BI. If no packets are shown the sender has not sent any weather packets the latest 1 day(s).
| Time | Temp. | Humidity | Pressure | Rain* | Wind** | Luminosity | Snow |
|---|---|---|---|---|---|---|---|
| 1778007952 | 14.44° C | 75% | 1016.5 hPa | 0 mm | 0.45 m/s, 123° | - | - |
| 1778007652 | 14.44° C | 76% | 1016.7 hPa | 0 mm | 0.45 m/s, 112° | - | - |
| 1778007352 | 14.44° C | 77% | 1016.7 hPa | 0 mm | 0.89 m/s, 166° | - | - |
| 1778007052 | 13.89° C | 76% | 1016.5 hPa | 0 mm | 0 m/s | - | - |
| 1778006752 | 13.89° C | 77% | 1016.5 hPa | 0 mm | 0.89 m/s, 156° | - | - |
| 1778006452 | 13.89° C | 77% | 1016.4 hPa | 0 mm | 0.45 m/s, 137° | - | - |
| 1778006152 | 13.89° C | 76% | 1016.5 hPa | 0 mm | 0.89 m/s, 188° | - | - |
| 1778005852 | 13.89° C | 78% | 1016.7 hPa | 0 mm | 0.45 m/s, 165° | - | - |
| 1778005552 | 13.89° C | 78% | 1016.4 hPa | 0 mm | 0.45 m/s, 162° | - | - |
| 1778005252 | 13.89° C | 78% | 1016.5 hPa | 0 mm | 0 m/s | - | - |
| 1778004952 | 13.33° C | 79% | 1016.5 hPa | 0 mm | 0 m/s | - | - |
| 1778004652 | 13.33° C | 79% | 1016.5 hPa | 0 mm | 0.45 m/s, 142° | - | - |
| 1778004352 | 13.33° C | 81% | 1016.5 hPa | 0 mm | 0 m/s | - | - |
| 1778004052 | 13.33° C | 78% | 1016.4 hPa | 0 mm | 0.89 m/s, 114° | - | - |
| 1778003752 | 13.33° C | 82% | 1016.7 hPa | 0 mm | 0.89 m/s, 162° | - | - |
| 1778003452 | 12.78° C | 82% | 1016.7 hPa | 0 mm | 0.45 m/s, 160° | - | - |
| 1778003152 | 12.78° C | 81% | 1016.4 hPa | 0 mm | 0.45 m/s, 112° | - | - |
| 1778002852 | 12.78° C | 82% | 1016.5 hPa | 0 mm | 0.89 m/s, 137° | - | - |
| 1778002552 | 12.78° C | 83% | 1016.7 hPa | 0 mm | 0.89 m/s, 158° | - | - |
| 1778002252 | 12.78° C | 82% | 1016.3 hPa | 0 mm | 1.34 m/s, 122° | - | - |
| 1778001952 | 12.78° C | 82% | 1016.4 hPa | 0 mm | 0.45 m/s, 158° | - | - |
| 1778001652 | 12.22° C | 82% | 1016.4 hPa | 0 mm | 0.45 m/s, 182° | - | - |
| 1778001352 | 12.22° C | 83% | 1016.3 hPa | 0 mm | 0.89 m/s, 164° | - | - |
| 1778001052 | 12.22° C | 84% | 1016.6 hPa | 0 mm | 0.45 m/s, 143° | - | - |
| 1778000752 | 12.22° C | 83% | 1016.7 hPa | 0 mm | 0.45 m/s, 157° | - | - |
* Rain latest hour (hover to see other rain measurements)
** Current wind speed in m/s (hover to see current wind gust speed)